| time (UTC) | temp F | wind direction | speed knots | gust knots | rain 1hr in | rain 24hr in | rain mn in | humidity % | barometer mb |
| 20260502230552 | 65 | 193 | 0.0 | 0.0 | 0.00 | 0.00 | 0.00 | 13 | 1014.5 |
| 20260502225534 | 65 | 219 | 0.0 | 2.6 | 0.00 | 0.00 | 0.00 | 12 | 1014.6 |
| 20260502224543 | 65 | 161 | 0.0 | 3.5 | 0.00 | 0.00 | 0.00 | 11 | 1014.5 |
| 20260502223552 | 65 | 191 | 0.0 | 4.3 | 0.00 | 0.00 | 0.00 | 11 | 1014.6 |
| 20260502222532 | 67 | 147 | 0.0 | 4.3 | 0.00 | 0.00 | 0.00 | 11 | 1014.7 |
| 20260502220357 | 67 | 144 | 0.9 | 2.6 | 0.00 | 0.00 | 0.00 | 9 | 1015.1 |
| 20260502215352 | 67 | 213 | 0.9 | 7.0 | 0.00 | 0.00 | 0.00 | 10 | 1015.1 |
| 20260502214329 | 67 | 0 | 0.9 | 3.5 | 0.00 | 0.00 | 0.00 | 11 | 1015.5 |
| 20260502213334 | 67 | 200 | 0.9 | 6.1 | 0.00 | 0.00 | 0.00 | 10 | 1015.7 |
| 20260502212307 | 67 | 219 | 0.9 | 7.0 | 0.00 | 0.00 | 0.00 | 11 | 1015.9 |
| 20260502211251 | 67 | 158 | 0.9 | 5.2 | 0.00 | 0.00 | 0.00 | 10 | 1016.1 |
| 20260502210252 | 66 | 172 | 0.9 | 7.0 | 0.00 | 0.00 | 0.00 | 10 | 1016.3 |
| 20260502205311 | 66 | 195 | 0.9 | 3.5 | 0.00 | 0.00 | 0.00 | 10 | 1016.4 |
| 20260502204306 | 65 | 150 | 0.9 | 3.5 | 0.00 | 0.00 | 0.00 | 10 | 1016.5 |
| 20260502203314 | 65 | 200 | 0.9 | 4.3 | 0.00 | 0.00 | 0.00 | 12 | 1016.5 |
| 20260502202242 | 65 | 155 | 1.7 | 9.6 | 0.00 | 0.00 | 0.00 | 10 | 1016.8 |
| 20260502200121 | 64 | 32 | 0.9 | 5.2 | 0.00 | 0.00 | 0.00 | 11 | 1017.0 |
| 20260502195057 | 64 | 205 | 0.9 | 5.2 | 0.00 | 0.00 | 0.00 | 13 | 1017.2 |
| 20260502192940 | 63 | 248 | 0.0 | 3.5 | 0.00 | 0.00 | 0.00 | 12 | 1017.6 |
| 20260502191957 | 63 | 198 | 0.9 | 5.2 | 0.00 | 0.00 | 0.00 | 16 | 1017.9 |
| 20260502191002 | 62 | 205 | 1.7 | 6.1 | 0.00 | 0.00 | 0.00 | 17 | 1018.1 |
| 20260502190008 | 61 | 224 | 1.7 | 6.1 | 0.00 | 0.00 | 0.00 | 15 | 1018.4 |
| 20260502185031 | 61 | 78 | 1.7 | 6.1 | 0.00 | 0.00 | 0.00 | 15 | 1018.6 |
| 20260502182836 | 61 | 177 | 1.7 | 6.1 | 0.00 | 0.00 | 0.00 | 16 | 1019.1 |
| 20260502181826 | 61 | 206 | 0.9 | 4.3 | 0.00 | 0.00 | 0.00 | 17 | 1019.2 |
| 20260502162624 | 54 | 259 | 0.0 | 1.7 | 0.00 | 0.00 | 0.00 | 28 | 1021.5 |
| 20260502161604 | 53 | 194 | 0.0 | 2.6 | 0.00 | 0.00 | 0.00 | 28 | 1021.7 |
| 20260502152320 | 47 | 224 | 0.0 | 3.5 | 0.00 | 0.00 | 0.00 | 38 | 1022.5 |
| 20260502151255 | 46 | 197 | 0.9 | 3.5 | 0.00 | 0.00 | 0.00 | 36 | 1022.7 |
| 20260502150228 | 45 | 191 | 0.9 | 2.6 | 0.00 | 0.00 | 0.00 | 39 | 1023.0 |
| 20260502130140 | 29 | 61 | 0.0 | 0.0 | 0.00 | 0.00 | 0.00 | 67 | 1023.1 |
| 20260502123010 | 28 | 61 | 0.0 | 0.0 | 0.00 | 0.00 | 0.00 | 67 | 1022.7 |
| 20260502122030 | 28 | 61 | 0.0 | 0.0 | 0.00 | 0.00 | 0.00 | 66 | 1022.7 |
| 20260502115916 | 28 | 61 | 0.0 | 0.0 | 0.00 | 0.00 | 0.00 | 65 | 1022.4 |
| 20260502114903 | 28 | 61 | 0.0 | 0.0 | 0.00 | 0.00 | 0.00 | 64 | 1022.4 |
| 20260502113903 | 28 | 61 | 0.0 | 0.0 | 0.00 | 0.00 | 0.00 | 65 | 1022.3 |
| 20260502112905 | 28 | 61 | 0.0 | 0.0 | 0.00 | 0.00 | 0.00 | 66 | 1022.1 |
| 20260502111907 | 28 | 88 | 0.0 | 0.0 | 0.00 | 0.00 | 0.00 | 66 | 1022.1 |
| 20260502110928 | 29 | 88 | 0.0 | 0.0 | 0.00 | 0.00 | 0.00 | 64 | 1021.9 |
| 20260502105923 | 29 | 87 | 0.0 | 0.0 | 0.00 | 0.00 | 0.00 | 64 | 1021.9 |
| 20260502104909 | 29 | 88 | 0.0 | 0.0 | 0.00 | 0.00 | 0.00 | 64 | 1021.7 |
| 20260502102710 | 30 | 87 | 0.0 | 0.0 | 0.00 | 0.00 | 0.00 | 64 | 1021.4 |
| 20260502101646 | 30 | 88 | 0.0 | 0.0 | 0.00 | 0.00 | 0.00 | 63 | 1021.3 |
| 20260502100620 | 30 | 88 | 0.0 | 0.0 | 0.00 | 0.00 | 0.00 | 62 | 1021.0 |
| 20260502091427 | 30 | 87 | 0.0 | 0.0 | 0.00 | 0.00 | 0.00 | 62 | 1020.3 |
| 20260502071251 | 32 | 165 | 0.0 | 0.0 | 0.00 | 0.00 | 0.00 | 83 | 1020.1 |
| 20260502070238 | 33 | 165 | 0.0 | 0.0 | 0.00 | 0.00 | 0.00 | 83 | 1019.9 |
| 20260502064102 | 33 | 165 | 0.0 | 0.0 | 0.00 | 0.00 | 0.00 | 79 | 1019.5 |
| 20260502063031 | 33 | 241 | 0.0 | 0.0 | 0.00 | 0.00 | 0.00 | 80 | 1019.4 |
| 20260502062042 | 34 | 241 | 0.0 | 0.0 | 0.00 | 0.00 | 0.00 | 83 | 1019.4 |
| 20260502061038 | 34 | 138 | 0.0 | 0.0 | 0.00 | 0.00 | 0.00 | 80 | 1019.3 |
| 20260502060035 | 34 | 158 | 0.0 | 0.0 | 0.00 | 0.00 | 0.00 | 80 | 1019.1 |
| 20260502052749 | 36 | 163 | 0.0 | 0.0 | 0.00 | 0.00 | 0.00 | 74 | 1018.8 |
| 20260502051717 | 37 | 164 | 0.0 | 0.0 | 0.00 | 0.00 | 0.00 | 72 | 1018.7 |
| 20260502050724 | 37 | 225 | 0.0 | 0.0 | 0.00 | 0.00 | 0.00 | 69 | 1018.6 |
| 20260502045739 | 38 | 75 | 0.0 | 0.0 | 0.00 | 0.00 | 0.00 | 70 | 1018.5 |
| 20260502044747 | 38 | 158 | 0.0 | 0.0 | 0.00 | 0.00 | 0.00 | 71 | 1018.4 |
| 20260502043750 | 38 | 158 | 0.0 | 0.0 | 0.00 | 0.00 | 0.00 | 70 | 1018.2 |
| 20260502042806 | 39 | 131 | 0.0 | 0.0 | 0.00 | 0.00 | 0.00 | 68 | 1018.0 |
| 20260502041743 | 40 | 156 | 0.0 | 0.0 | 0.00 | 0.00 | 0.00 | 71 | 1018.0 |
| 20260502040752 | 41 | 142 | 0.0 | 0.0 | 0.00 | 0.00 | 0.00 | 69 | 1017.7 |
| 20260502035756 | 41 | 258 | 0.0 | 0.0 | 0.00 | 0.00 | 0.00 | 68 | 1017.5 |
| 20260502034802 | 42 | 156 | 0.0 | 0.0 | 0.00 | 0.00 | 0.00 | 65 | 1017.5 |
| 20260502033814 | 43 | 156 | 0.0 | 0.0 | 0.00 | 0.00 | 0.00 | 60 | 1017.1 |
| 20260502032742 | 43 | 157 | 0.0 | 0.0 | 0.00 | 0.00 | 0.00 | 61 | 1016.8 |
| 20260502031725 | 44 | 157 | 0.0 | 0.0 | 0.00 | 0.00 | 0.00 | 57 | 1016.6 |
| 20260502030705 | 46 | 156 | 0.0 | 0.0 | 0.00 | 0.00 | 0.00 | 54 | 1016.4 |
| 20260502024558 | 48 | 148 | 0.0 | 0.0 | 0.00 | 0.00 | 0.00 | 50 | 1016.0 |
| 20260502023608 | 49 | 148 | 0.0 | 0.0 | 0.00 | 0.00 | 0.00 | 45 | 1015.8 |
| 20260502022604 | 50 | 148 | 0.0 | 0.0 | 0.00 | 0.00 | 0.00 | 41 | 1015.5 |
| 20260502021535 | 52 | 300 | 0.0 | 0.0 | 0.00 | 0.00 | 0.00 | 37 | 1015.4 |
| 20260502020551 | 53 | 299 | 0.0 | 0.0 | 0.00 | 0.00 | 0.00 | 35 | 1015.3 |
| 20260502015526 | 55 | 108 | 0.0 | 0.0 | 0.00 | 0.00 | 0.00 | 33 | 1015.0 |
| 20260502014541 | 56 | 109 | 0.0 | 0.0 | 0.00 | 0.00 | 0.00 | 30 | 1014.9 |
| 20260502013534 | 56 | 106 | 0.0 | 1.7 | 0.00 | 0.00 | 0.00 | 28 | 1014.8 |
| 20260502012524 | 57 | 135 | 0.0 | 1.7 | 0.00 | 0.00 | 0.00 | 27 | 1014.7 |
| 20260502011533 | 58 | 107 | 0.9 | 5.2 | 0.00 | 0.00 | 0.00 | 27 | 1014.6 |
| 20260502010459 | 60 | 324 | 0.9 | 7.8 | 0.00 | 0.00 | 0.00 | 26 | 1014.4 |
| 20260502004337 | 61 | 27 | 0.0 | 5.2 | 0.00 | 0.00 | 0.00 | 23 | 1014.4 |
| 20260502003328 | 60 | 84 | 0.9 | 9.6 | 0.00 | 0.00 | 0.00 | 24 | 1014.3 |
| 20260502001213 | 59 | 19 | 0.0 | 7.0 | 0.00 | 0.00 | 0.00 | 25 | 1014.2 |
| 20260502000153 | 59 | 30 | 1.7 | 7.0 | 0.00 | 0.00 | 0.00 | 26 | 1014.2 |
| 20260501235202 | 62 | 52 | 1.7 | 7.8 | 0.00 | 0.00 | 0.00 | 23 | 1014.1 |
| 20260501234128 | 63 | 109 | 1.7 | 7.8 | 0.00 | 0.00 | 0.00 | 18 | 1014.0 |
| 20260501233100 | 64 | 307 | 1.7 | 6.1 | 0.00 | 0.00 | 0.00 | 19 | 1013.9 |
| 20260501232105 | 64 | 50 | 0.9 | 8.7 | 0.00 | 0.00 | 0.00 | 17 | 1013.8 |